GTRIP EGLC-LJLJ

Flight info

Callsign GTRIP
Flight time N/A
Altitude 45000
Route SOQQA M87 UMTUM L9 KONAN UL607 SPI DCT ULNOK DCT VIBOM DCT NOMBO DCT RIDAR DCT RADIZ DCT LUMUS LUMUS4L
Aircraft C750/M-SBDE3FGHRWXY/S

Departure

Time 2026-05-06 20:34
Airport London City Airport (EGLC)

Arrival

Time N/A
Airport Ljubljana Jože Pučnik Airport (LJLJ)
Time Latitude Longitude Altitude Speed Heading
2026-05-06 20:16 51.50463 0.04311 23 ft 0 kts 322°
2026-05-06 20:31 51.50464 0.04310 23 ft 1 kts 323°
2026-05-06 20:31 51.50479 0.04308 22 ft 2 kts
2026-05-06 20:32 51.50496 0.04335 24 ft 5 kts 72°
2026-05-06 20:32 51.50493 0.04389 24 ft 6 kts 102°
2026-05-06 20:32 51.50489 0.04420 22 ft 4 kts 97°
2026-05-06 20:32 51.50495 0.04439 25 ft 1 kts 39°
2026-05-06 20:33 51.50497 0.04439 25 ft 1 kts 21°
2026-05-06 20:33 51.50525 0.04440 22 ft 6 kts
2026-05-06 20:33 51.50555 0.04488 22 ft 7 kts 83°
2026-05-06 20:33 51.50556 0.04497 22 ft 0 kts 85°
2026-05-06 20:34 51.50546 0.04894 22 ft 95 kts 91°
2026-05-06 20:34 51.50509 0.06413 206 ft 156 kts 91°
2026-05-06 20:34 51.50582 0.08326 578 ft 188 kts 88°
2026-05-06 20:34 51.50464 0.10523 1053 ft 203 kts 98°
2026-05-06 20:35 51.50274 0.12890 1515 ft 224 kts 96°
2026-05-06 20:35 51.50813 0.14962 2434 ft 207 kts 46°
2026-05-06 20:35 51.51919 0.16582 2869 ft 222 kts 44°
2026-05-06 20:35 51.52543 0.18899 2941 ft 233 kts 86°
2026-05-06 20:36 51.52165 0.21084 2958 ft 227 kts 123°
2026-05-06 20:36 51.51287 0.23185 2920 ft 232 kts 113°
2026-05-06 20:36 51.51178 0.25817 2476 ft 233 kts 90°
2026-05-06 20:36 51.51211 0.28235 3133 ft 200 kts 79°
2026-05-06 20:37 51.51546 0.30228 4498 ft 182 kts 72°
2026-05-06 20:37 51.51880 0.32222 5208 ft 202 kts 76°
2026-05-06 20:37 51.52488 0.34476 5651 ft 234 kts 58°
2026-05-06 20:37 51.53290 0.36942 6139 ft 265 kts 70°
2026-05-06 20:38 51.53299 0.40014 6725 ft 285 kts 108°
2026-05-06 20:38 51.52468 0.42789 7752 ft 271 kts 120°
2026-05-06 20:38 51.51507 0.45489 8021 ft 280 kts 121°
2026-05-06 20:38 51.50537 0.48181 8008 ft 277 kts 121°
2026-05-06 20:39 51.49575 0.50852 8007 ft 276 kts 121°
2026-05-06 20:39 51.48617 0.53512 8011 ft 289 kts 121°
2026-05-06 20:39 51.47586 0.56360 9057 ft 289 kts 121°
2026-05-06 20:39 51.46580 0.59141 10288 ft 292 kts 121°
2026-05-06 20:40 51.45513 0.62084 10718 ft 317 kts 121°
2026-05-06 20:40 51.44356 0.65263 10969 ft 344 kts 121°
2026-05-06 20:40 51.43106 0.68683 11398 ft 360 kts 121°
2026-05-06 20:40 51.41834 0.72161 12293 ft 362 kts 121°
2026-05-06 20:41 51.40552 0.75663 13051 ft 367 kts 121°
2026-05-06 20:41 51.39253 0.79208 13800 ft 371 kts 121°
2026-05-06 20:41 51.37940 0.82785 14537 ft 375 kts 121°
2026-05-06 20:41 51.36611 0.86407 15248 ft 379 kts 121°
2026-05-06 20:42 51.35285 0.90013 15945 ft 383 kts 121°
2026-05-06 20:42 51.33928 0.93703 16661 ft 387 kts 121°
2026-05-06 20:42 51.32556 0.97430 17378 ft 391 kts 121°
2026-05-06 20:42 51.31173 1.01212 18083 ft 395 kts 120°
2026-05-06 20:43 51.30243 1.05382 18698 ft 401 kts 103°
2026-05-06 20:43 51.29769 1.09793 19476 ft 404 kts 98°
2026-05-06 20:43 51.29416 1.14274 20197 ft 408 kts 97°
2026-05-06 20:43 51.29094 1.18802 20902 ft 413 kts 96°
2026-05-06 20:44 51.28778 1.23381 21583 ft 417 kts 96°
2026-05-06 20:44 51.28462 1.28017 22246 ft 421 kts 96°
2026-05-06 20:44 51.28142 1.32690 22892 ft 425 kts 96°
2026-05-06 20:44 51.27582 1.37350 23400 ft 430 kts 107°
2026-05-06 20:45 51.26520 1.41757 24053 ft 432 kts 114°
2026-05-06 20:45 51.25297 1.46156 24640 ft 436 kts 114°
2026-05-06 20:45 51.24156 1.50670 25201 ft 440 kts 110°
2026-05-06 20:45 51.23210 1.55336 25773 ft 444 kts 107°
2026-05-06 20:46 51.22247 1.60043 26320 ft 448 kts 110°
2026-05-06 20:46 51.21159 1.64650 26873 ft 426 kts 111°
2026-05-06 20:46 51.20136 1.68898 26986 ft 394 kts 111°
2026-05-06 20:46 51.19254 1.72870 26977 ft 369 kts 109°
2026-05-06 20:47 51.18406 1.76752 26944 ft 386 kts 110°
2026-05-06 20:47 51.17457 1.80897 26945 ft 409 kts 111°
2026-05-06 20:47 51.16442 1.85266 26973 ft 430 kts 110°
2026-05-06 20:47 51.15397 1.89845 27003 ft 448 kts 110°
2026-05-06 20:48 51.14325 1.94578 27389 ft 455 kts 110°
2026-05-06 20:48 51.13330 1.99386 27925 ft 459 kts 104°
2026-05-06 20:48 51.12839 2.04424 28444 ft 462 kts 95°
2026-05-06 20:48 51.12579 2.09479 28870 ft 464 kts 95°
2026-05-06 20:49 51.12306 2.14655 29187 ft 470 kts 95°
2026-05-06 20:49 51.12018 2.19838 29762 ft 472 kts 95°
2026-05-06 20:49 51.11730 2.25077 30221 ft 475 kts 95°
2026-05-06 20:49 51.11445 2.30347 30693 ft 479 kts 95°
2026-05-06 20:50 51.11154 2.35649 31218 ft 480 kts 95°
2026-05-06 20:50 51.10860 2.40865 31913 ft 478 kts 95°
2026-05-06 20:50 51.10564 2.46118 32557 ft 476 kts 95°
2026-05-06 20:50 51.10268 2.51358 33186 ft 475 kts 95°
2026-05-06 20:51 51.09969 2.56587 33814 ft 474 kts 95°
2026-05-06 20:51 51.09668 2.61798 34435 ft 472 kts 95°
2026-05-06 20:51 51.09173 2.66963 35000 ft 472 kts 103°
2026-05-06 20:51 51.08303 2.72001 35617 ft 470 kts 107°
2026-05-06 20:52 51.07335 2.76952 36236 ft 468 kts 108°
2026-05-06 20:52 51.06405 2.81919 36806 ft 468 kts 106°
2026-05-06 20:52 51.05540 2.86905 37348 ft 468 kts 105°
2026-05-06 20:52 51.04657 2.91886 37884 ft 468 kts 106°
2026-05-06 20:53 51.03739 2.96787 38420 ft 468 kts 107°
2026-05-06 20:53 51.02812 3.01743 38936 ft 468 kts 107°
2026-05-06 20:53 51.01905 3.06729 39464 ft 468 kts 106°
2026-05-06 20:53 51.01002 3.11706 39988 ft 468 kts 107°
2026-05-06 20:54 51.00080 3.16674 40502 ft 468 kts 107°
2026-05-06 20:54 50.99151 3.21639 41007 ft 468 kts 107°
2026-05-06 20:54 50.98232 3.26596 41506 ft 468 kts 107°
2026-05-06 20:54 50.97314 3.31553 41988 ft 468 kts 107°
2026-05-06 20:55 50.96389 3.36506 42452 ft 468 kts 107°
2026-05-06 20:55 50.95469 3.41400 42896 ft 468 kts 107°
2026-05-06 20:55 50.94536 3.46367 43334 ft 468 kts 107°
2026-05-06 20:55 50.93607 3.51316 43755 ft 468 kts 107°
2026-05-06 20:56 50.92673 3.56262 44161 ft 468 kts 107°
2026-05-06 20:56 50.92052 3.59542 44423 ft 468 kts 107°
2026-05-06 20:56 50.90795 3.66166 44930 ft 469 kts 107°
2026-05-06 20:57 50.89189 3.74496 44994 ft 482 kts 107°
2026-05-06 20:57 50.87187 3.84841 45011 ft 499 kts 107°
2026-05-06 20:58 50.85131 3.95428 45005 ft 512 kts 107°
2026-05-06 20:58 50.83017 4.06236 45007 ft 514 kts 107°
2026-05-06 20:59 50.80895 4.17032 45006 ft 514 kts 108°
2026-05-06 20:59 50.78758 4.27838 45000 ft 514 kts 108°
2026-05-06 21:00 50.76616 4.38614 45002 ft 515 kts 108°
2026-05-06 21:00 50.74452 4.49437 45002 ft 519 kts 108°
2026-05-06 21:01 50.72260 4.60342 45005 ft 528 kts 108°
2026-05-06 21:01 50.70107 4.71461 45001 ft 532 kts 107°
2026-05-06 21:02 50.67942 4.82645 45008 ft 533 kts 108°
2026-05-06 21:02 50.65742 4.93813 45008 ft 532 kts 107°
2026-05-06 21:03 50.63450 5.04929 45007 ft 533 kts 109°
2026-05-06 21:03 50.61176 5.15956 45004 ft 533 kts 108°
2026-05-06 21:04 50.58881 5.27060 45007 ft 533 kts 109°
2026-05-06 21:04 50.56562 5.38142 45007 ft 533 kts 108°
2026-05-06 21:05 50.54245 5.49231 45007 ft 533 kts 109°
2026-05-06 21:05 50.51918 5.60245 45008 ft 533 kts 109°
2026-05-06 21:06 50.49509 5.71271 45006 ft 533 kts 110°
2026-05-06 21:06 50.46994 5.82257 45005 ft 534 kts 109°
2026-05-06 21:07 50.44556 5.93225 45005 ft 536 kts 110°
2026-05-06 21:07 50.42030 6.04238 45008 ft 534 kts 110°
2026-05-06 21:08 50.39555 6.15174 45004 ft 536 kts 110°
2026-05-06 21:08 50.37024 6.26162 45008 ft 536 kts 110°
2026-05-06 21:09 50.34495 6.37167 45008 ft 536 kts 110°
2026-05-06 21:09 50.31947 6.48151 45008 ft 536 kts 110°
2026-05-06 21:10 50.29399 6.59106 45008 ft 536 kts 110°
2026-05-06 21:10 50.26857 6.69964 45008 ft 535 kts 110°
2026-05-06 21:11 50.24286 6.80901 45008 ft 536 kts 110°
2026-05-06 21:11 50.21708 6.91807 45009 ft 535 kts 110°
2026-05-06 21:12 50.19120 7.02699 45009 ft 535 kts 111°
2026-05-06 21:12 50.16519 7.13595 45009 ft 535 kts 111°
2026-05-06 21:13 50.13935 7.24363 45009 ft 533 kts 111°
2026-05-06 21:13 50.11326 7.35184 45008 ft 534 kts 111°
2026-05-06 21:14 50.08703 7.46010 45009 ft 534 kts 111°
2026-05-06 21:14 50.06062 7.56852 45009 ft 535 kts 111°
2026-05-06 21:15 50.03414 7.67675 45010 ft 535 kts 111°
2026-05-06 21:15 50.00768 7.78433 45009 ft 534 kts 111°
2026-05-06 21:16 49.98100 7.89229 45002 ft 533 kts 111°
2026-05-06 21:16 49.95434 7.99965 45004 ft 532 kts 111°
2026-05-06 21:17 49.92776 8.10619 45004 ft 533 kts 111°
2026-05-06 21:17 49.90090 8.21334 45007 ft 532 kts 111°
2026-05-06 21:18 49.87392 8.32044 45004 ft 532 kts 111°
2026-05-06 21:18 49.84433 8.42536 44987 ft 531 kts 120°